![]() |
EMODnet Physics ERDDAP
Easier access to scientific data |
log in|
Brought to you by EMODnet Physics |
| Dataset Title: | NDBC - Collection of dew point temperature (DEWT) TimeSeries - IN SITU MultiPointTimeSeriesObservation
|
| Institution: | NDBC (Dataset ID: TS_DEWT_NDBC) |
| Information: | Summary
| License
| FGDC
| ISO 19115
| Metadata
| Background
| Subset
| Data Access Form
| Make a graph
|
| Name | Last modified | Size | Description | |
|---|---|---|---|---|
| Parent Directory | - | - | ||
| MCYF1_TS_DEWT_012007.nc | 27-Oct-2024 13:20 | 429832 | ||
| MCYF1_TS_DEWT_012008.nc | 27-Oct-2024 13:20 | 429488 | ||
| MCYF1_TS_DEWT_012014.nc | 27-Oct-2024 13:20 | 429838 | ||
| MCYF1_TS_DEWT_012015.nc | 27-Oct-2024 13:20 | 643474 | ||
| MCYF1_TS_DEWT_012016.nc | 27-Oct-2024 13:20 | 1261494 | ||
| MCYF1_TS_DEWT_012017.nc | 27-Oct-2024 13:20 | 1262954 | ||
| MCYF1_TS_DEWT_012018.nc | 27-Oct-2024 13:20 | 1261623 | ||
| MCYF1_TS_DEWT_012019.nc | 27-Oct-2024 13:20 | 1265039 | ||
| MCYF1_TS_DEWT_012020.nc | 16-Sep-2024 16:51 | 649474 | ||
| MCYF1_TS_DEWT_022005.nc | 27-Oct-2024 13:20 | 429284 | ||
| MCYF1_TS_DEWT_022007.nc | 27-Oct-2024 13:20 | 449523 | ||
| MCYF1_TS_DEWT_022008.nc | 27-Oct-2024 13:20 | 448680 | ||
| MCYF1_TS_DEWT_022014.nc | 27-Oct-2024 13:20 | 449456 | ||
| MCYF1_TS_DEWT_022015.nc | 27-Oct-2024 13:20 | 429278 | ||
| MCYF1_TS_DEWT_022016.nc | 27-Oct-2024 13:20 | 429286 | ||
| MCYF1_TS_DEWT_022017.nc | 27-Oct-2024 13:21 | 429488 | ||
| MCYF1_TS_DEWT_022018.nc | 27-Oct-2024 13:21 | 429494 | ||
| MCYF1_TS_DEWT_022019.nc | 27-Oct-2024 13:21 | 429491 | ||
| MCYF1_TS_DEWT_022020.nc | 16-Sep-2024 16:51 | 429477 | ||
| MCYF1_TS_DEWT_032005.nc | 27-Oct-2024 13:21 | 429494 | ||
| MCYF1_TS_DEWT_032006.nc | 27-Oct-2024 13:21 | 429046 | ||
| MCYF1_TS_DEWT_032007.nc | 27-Oct-2024 13:21 | 429487 | ||
| MCYF1_TS_DEWT_032008.nc | 27-Oct-2024 13:21 | 429447 | ||
| MCYF1_TS_DEWT_032014.nc | 27-Oct-2024 13:21 | 429490 | ||
| MCYF1_TS_DEWT_032015.nc | 27-Oct-2024 13:21 | 429492 | ||
| MCYF1_TS_DEWT_032016.nc | 27-Oct-2024 13:21 | 429491 | ||
| MCYF1_TS_DEWT_032017.nc | 27-Oct-2024 13:21 | 429494 | ||
| MCYF1_TS_DEWT_032018.nc | 27-Oct-2024 13:21 | 429555 | ||
| MCYF1_TS_DEWT_032019.nc | 27-Oct-2024 13:21 | 429477 | ||
| MCYF1_TS_DEWT_032020.nc | 16-Sep-2024 16:51 | 1026521 | ||
| MCYF1_TS_DEWT_042005.nc | 27-Oct-2024 13:21 | 1112635 | ||
| MCYF1_TS_DEWT_042006.nc | 27-Oct-2024 13:21 | 1105673 | ||
| MCYF1_TS_DEWT_042007.nc | 27-Oct-2024 13:21 | 1111070 | ||
| MCYF1_TS_DEWT_042008.nc | 27-Oct-2024 13:21 | 1111721 | ||
| MCYF1_TS_DEWT_042013.nc | 27-Oct-2024 13:22 | 1111228 | ||
| MCYF1_TS_DEWT_042014.nc | 27-Oct-2024 13:22 | 429594 | ||
| MCYF1_TS_DEWT_042015.nc | 27-Oct-2024 13:22 | 449702 | ||
| MCYF1_TS_DEWT_042016.nc | 27-Oct-2024 13:22 | 449896 | ||
| MCYF1_TS_DEWT_042017.nc | 27-Oct-2024 13:22 | 449435 | ||
| MCYF1_TS_DEWT_042018.nc | 27-Oct-2024 13:22 | 429622 | ||
| MCYF1_TS_DEWT_042019.nc | 27-Oct-2024 13:22 | 429609 | ||
| MCYF1_TS_DEWT_042020.nc | 16-Sep-2024 16:51 | 429838 | ||
| MCYF1_TS_DEWT_052005.nc | 27-Oct-2024 13:22 | 429834 | ||
| MCYF1_TS_DEWT_052006.nc | 27-Oct-2024 13:22 | 429831 | ||
| MCYF1_TS_DEWT_052007.nc | 27-Oct-2024 13:22 | 429838 | ||
| MCYF1_TS_DEWT_052008.nc | 27-Oct-2024 13:22 | 429829 | ||
| MCYF1_TS_DEWT_052013.nc | 27-Oct-2024 13:22 | 429834 | ||
| MCYF1_TS_DEWT_052014.nc | 27-Oct-2024 13:22 | 429834 | ||
| MCYF1_TS_DEWT_052015.nc | 27-Oct-2024 13:22 | 429769 | ||
| MCYF1_TS_DEWT_052016.nc | 27-Oct-2024 13:22 | 429838 | ||
| MCYF1_TS_DEWT_052017.nc | 27-Oct-2024 13:23 | 429836 | ||
| MCYF1_TS_DEWT_052018.nc | 27-Oct-2024 13:23 | 429833 | ||
| MCYF1_TS_DEWT_052019.nc | 27-Oct-2024 13:23 | 429836 | ||
| MCYF1_TS_DEWT_052020.nc | 16-Sep-2024 16:51 | 429813 | ||
| MCYF1_TS_DEWT_062005.nc | 27-Oct-2024 13:23 | 429834 | ||
| MCYF1_TS_DEWT_062006.nc | 27-Oct-2024 13:23 | 1261133 | ||
| MCYF1_TS_DEWT_062007.nc | 27-Oct-2024 13:23 | 1104178 | ||
| MCYF1_TS_DEWT_062008.nc | 27-Oct-2024 13:23 | 1262212 | ||
| MCYF1_TS_DEWT_062013.nc | 27-Oct-2024 13:23 | 1263027 | ||
| MCYF1_TS_DEWT_062014.nc | 27-Oct-2024 13:23 | 1261809 | ||
| MCYF1_TS_DEWT_062015.nc | 27-Oct-2024 13:23 | 1261915 | ||
| MCYF1_TS_DEWT_062016.nc | 27-Oct-2024 13:23 | 432935 | ||
| MCYF1_TS_DEWT_062017.nc | 27-Oct-2024 13:23 | 419532 | ||
| MCYF1_TS_DEWT_062018.nc | 27-Oct-2024 13:23 | 450071 | ||
| MCYF1_TS_DEWT_062019.nc | 27-Oct-2024 13:24 | 449734 | ||
| MCYF1_TS_DEWT_072006.nc | 27-Oct-2024 13:24 | 434217 | ||
| MCYF1_TS_DEWT_072007.nc | 27-Oct-2024 13:24 | 428969 | ||
| MCYF1_TS_DEWT_072008.nc | 27-Oct-2024 13:24 | 429621 | ||
| MCYF1_TS_DEWT_072013.nc | 27-Oct-2024 13:24 | 429833 | ||
| MCYF1_TS_DEWT_072014.nc | 27-Oct-2024 13:24 | 429833 | ||
| MCYF1_TS_DEWT_072015.nc | 27-Oct-2024 13:24 | 429835 | ||
| MCYF1_TS_DEWT_072016.nc | 27-Oct-2024 13:24 | 429832 | ||
| MCYF1_TS_DEWT_072017.nc | 27-Oct-2024 13:24 | 429834 | ||
| MCYF1_TS_DEWT_072018.nc | 27-Oct-2024 13:24 | 429835 | ||
| MCYF1_TS_DEWT_072019.nc | 27-Oct-2024 13:24 | 429832 | ||
| MCYF1_TS_DEWT_082006.nc | 27-Oct-2024 13:24 | 429737 | ||
| MCYF1_TS_DEWT_082007.nc | 27-Oct-2024 13:24 | 429831 | ||
| MCYF1_TS_DEWT_082008.nc | 27-Oct-2024 13:24 | 429838 | ||
| MCYF1_TS_DEWT_082013.nc | 27-Oct-2024 13:24 | 429834 | ||
| MCYF1_TS_DEWT_082014.nc | 27-Oct-2024 13:24 | 429835 | ||
| MCYF1_TS_DEWT_082015.nc | 27-Oct-2024 13:24 | 429836 | ||
| MCYF1_TS_DEWT_082016.nc | 27-Oct-2024 13:24 | 429835 | ||
| MCYF1_TS_DEWT_082017.nc | 27-Oct-2024 13:24 | 1187969 | ||
| MCYF1_TS_DEWT_082018.nc | 27-Oct-2024 13:25 | 1254585 | ||
| MCYF1_TS_DEWT_082019.nc | 27-Oct-2024 13:25 | 1265878 | ||
| MCYF1_TS_DEWT_092006.nc | 27-Oct-2024 13:25 | 1264766 | ||
| MCYF1_TS_DEWT_092007.nc | 27-Oct-2024 13:25 | 1264214 | ||
| MCYF1_TS_DEWT_092008.nc | 27-Oct-2024 13:25 | 1260509 | ||
| MCYF1_TS_DEWT_092013.nc | 27-Oct-2024 13:25 | 442780 | ||
| MCYF1_TS_DEWT_092014.nc | 27-Oct-2024 13:25 | 447390 | ||
| MCYF1_TS_DEWT_092015.nc | 27-Oct-2024 13:25 | 449384 | ||
| MCYF1_TS_DEWT_092016.nc | 27-Oct-2024 13:25 | 429290 | ||
| MCYF1_TS_DEWT_092017.nc | 27-Oct-2024 13:25 | 424784 | ||
| MCYF1_TS_DEWT_092018.nc | 27-Oct-2024 13:25 | 429286 | ||
| MCYF1_TS_DEWT_092019.nc | 27-Oct-2024 13:25 | 429487 | ||
| MCYF1_TS_DEWT_102006.nc | 27-Oct-2024 13:25 | 429494 | ||
| MCYF1_TS_DEWT_102007.nc | 27-Oct-2024 13:25 | 429493 | ||
| MCYF1_TS_DEWT_102008.nc | 27-Oct-2024 13:25 | 429493 | ||
| MCYF1_TS_DEWT_102012.nc | 27-Oct-2024 13:25 | 429492 | ||
| MCYF1_TS_DEWT_102013.nc | 27-Oct-2024 13:26 | 429490 | ||
| MCYF1_TS_DEWT_102014.nc | 27-Oct-2024 13:26 | 429488 | ||
| MCYF1_TS_DEWT_102015.nc | 27-Oct-2024 13:26 | 429472 | ||
| MCYF1_TS_DEWT_102016.nc | 27-Oct-2024 13:26 | 422305 | ||
| MCYF1_TS_DEWT_102017.nc | 27-Oct-2024 13:26 | 429490 | ||
| MCYF1_TS_DEWT_102018.nc | 27-Oct-2024 13:26 | 429493 | ||
| MCYF1_TS_DEWT_102019.nc | 27-Oct-2024 13:26 | 429488 | ||
| MCYF1_TS_DEWT_112006.nc | 27-Oct-2024 13:26 | 429489 | ||
| MCYF1_TS_DEWT_112007.nc | 27-Oct-2024 13:26 | 429494 | ||
| MCYF1_TS_DEWT_112008.nc | 27-Oct-2024 13:26 | 1015460 | ||
| MCYF1_TS_DEWT_112012.nc | 27-Oct-2024 13:26 | 1108414 | ||
| MCYF1_TS_DEWT_112013.nc | 27-Oct-2024 13:26 | 1111430 | ||
| MCYF1_TS_DEWT_112014.nc | 27-Oct-2024 13:26 | 1111719 | ||
| MCYF1_TS_DEWT_112015.nc | 27-Oct-2024 13:27 | 1110450 | ||
| MCYF1_TS_DEWT_112016.nc | 27-Oct-2024 13:27 | 1111664 | ||
| MCYF1_TS_DEWT_112017.nc | 27-Oct-2024 13:27 | 429616 | ||
| MCYF1_TS_DEWT_112018.nc | 27-Oct-2024 13:27 | 449600 | ||
| MCYF1_TS_DEWT_112019.nc | 16-Sep-2024 16:51 | 449963 | ||
| MCYF1_TS_DEWT_122006.nc | 27-Oct-2024 13:27 | 429621 | ||
| MCYF1_TS_DEWT_122007.nc | 27-Oct-2024 13:27 | 423735 | ||
| MCYF1_TS_DEWT_122008.nc | 27-Oct-2024 13:27 | 429614 | ||
| MCYF1_TS_DEWT_122012.nc | 27-Oct-2024 13:27 | 429831 | ||
| MCYF1_TS_DEWT_122013.nc | 27-Oct-2024 13:27 | 429824 | ||
| MCYF1_TS_DEWT_122014.nc | 27-Oct-2024 13:27 | 429830 | ||
| MCYF1_TS_DEWT_122015.nc | 27-Oct-2024 13:27 | 429759 | ||
| MCYF1_TS_DEWT_122016.nc | 27-Oct-2024 13:27 | 429835 | ||
| MCYF1_TS_DEWT_122017.nc | 27-Oct-2024 13:27 | 429834 | ||
| MCYF1_TS_DEWT_122018.nc | 27-Oct-2024 13:28 | 420053 | ||
| MCYF1_TS_DEWT_122019.nc | 16-Sep-2024 16:51 | 429837 | ||